Location: Cincinnati Observatory Center
(39.1389°N, 84.4225°W)
Time: 16:15:13
(UTC-04:00)

Amateur Radio Satellites - All Passes

Search period start: 30 August 2014 15:45
Search period end: 31 August 2014 15:45
Location: Cincinnati Observatory Center, 39.1389°N, 84.4225°W

Satellite Date Start Highest point End Downlink Frequencies (MHz)
Time Altitude Azimuth
AO-7 30 Aug 15:46:49 15:53:52 32° 59° (ENE) 16:00:54 29.400 - 29.500 MHz
UOSAT-12 30 Aug 15:57:02 16:01:40 57° 242° (WSW) 16:06:13 437.025 FM, 437.400 FM
RS-15 30 Aug 16:00:47 16:10:21 32° 37° (NE) 16:20:08 29.354 - 29.394 USB, Beacon 29.352 USB
AO-Echo 30 Aug 16:01:40 16:05:34 22° 265° (W) 16:09:24 ?
ITAMSAT 1 30 Aug 16:02:47 16:06:59 25° 265° (W) 16:11:13 435.822 SSB
PANSAT 30 Aug 16:04:22 16:06:19 13° 191° (S) 16:08:15 not established
Oscar 10/S400 30 Aug 16:07:08 16:21:19 19° 147° (SSE) 16:33:49 145.825 - 145.975 CW/USB, Beacon 145.810 USB
TMSAT-1 30 Aug 16:08:44 16:14:00 69° 258° (WSW) 16:19:17 436.925 FM
Uribyol 2 30 Aug 16:13:37 16:17:10 19° 267° (W) 16:20:45 436.500 FM
AO-27 30 Aug 16:34:04 16:36:17 13° 270° (W) 16:38:30 436.795 MHz FM
Sapphire 30 Aug 16:38:33 16:41:33 15° 104° (ESE) 16:44:35 437.095 MHz 1200 baud AX-25 AFSK
Uosat F 30 Aug 16:50:23 16:55:17 58° 73° (ENE) 17:00:13 435.120 FM
Gurwin Techsat 1B 30 Aug 16:59:00 17:02:29 18° 268° (W) 17:06:00 435.225 FM
JAS-1B 30 Aug 16:59:09 17:06:14 22° 269° (W) 17:12:58 435.800 - 435.900 CW/SSB
ISS 30 Aug 17:05:17 17:08:02 23° 26° (NNE) 17:10:47 145.800 FM
PCSat 30 Aug 17:06:05 17:10:45 30° 109° (ESE) 17:15:26 145.825 MHz
AO-7 30 Aug 17:38:00 17:46:11 59° 257° (WSW) 17:54:23 29.400 - 29.500 MHz
JAS-2 30 Aug 17:41:28 17:46:02 23° 66° (ENE) 17:50:17 435.800 - 435.900 CW/SSB, 435.910 FM
Hamsat 30 Aug 18:08:08 18:11:54 30° 70° (ENE) 18:15:43 145.90 MHz
OPAL 30 Aug 18:12:10 18:17:25 75° 105° (ESE) 18:22:36 ?
RS-15 30 Aug 18:12:55 18:24:04 84° 242° (WSW) 18:35:40 29.354 - 29.394 USB, Beacon 29.352 USB
Sapphire 30 Aug 18:18:59 18:24:21 68° 300° (WNW) 18:29:46 437.095 MHz 1200 baud AX-25 AFSK
Uosat F 30 Aug 18:31:39 18:34:26 15° 268° (W) 18:37:13 435.120 FM
ISS 30 Aug 18:41:42 18:44:55 47° 223° (SW) 18:48:07 145.800 FM
PCSat 30 Aug 18:49:04 18:54:02 36° 306° (NW) 18:59:02 145.825 MHz
SO-67 30 Aug 19:10:29 19:12:48 17° 69° (ENE) 19:15:08 435.3500 MHz FM
JAS-2 30 Aug 19:24:48 19:30:53 50° 260° (W) 19:36:20 435.800 - 435.900 CW/SSB, 435.910 FM
HO-68 30 Aug 19:41:00 19:41:49 10° 50° (NE) 19:42:38 435.675 MHz FM
Hamsat 30 Aug 19:44:32 19:47:52 22° 266° (W) 19:51:14 145.90 MHz
OPAL 30 Aug 19:52:55 19:55:38 14° 301° (WNW) 19:58:20 ?
STRAND 1 30 Aug 19:55:53 20:00:36 37° 98° (E) 20:05:18 ?
Sapphire 30 Aug 20:06:53 20:08:49 12° 320° (NW) 20:10:45 437.095 MHz 1200 baud AX-25 AFSK
RS-15 30 Aug 20:27:52 20:34:47 19° 260° (W) 20:41:53 29.354 - 29.394 USB, Beacon 29.352 USB
SO-67 30 Aug 20:42:48 20:45:40 24° 264° (W) 20:48:32 435.3500 MHz FM
HO-68 30 Aug 21:21:04 21:28:01 58° 69° (ENE) 21:34:58 435.675 MHz FM
UKube-1 30 Aug 21:30:13 21:33:50 26° 68° (ENE) 21:37:26 145.840 MHz, 145.915 MHz
STRAND 1 30 Aug 21:35:29 21:39:35 25° 294° (WNW) 21:43:40 ?
Oscar 11 30 Aug 21:37:01 21:40:03 19° 67° (ENE) 21:43:07 145.825 FM, Beacon 2401.500 USB
FUNcube-1 30 Aug 22:03:40 22:05:43 14° 64° (ENE) 22:07:47 145.950 - 145.970 MHz USB
AO-40 30 Aug 22:20:37 02:00:39 38° 190° (S) 07:24:43 Beacon 2401.320
Saudisat 1A 30 Aug 22:20:43 22:23:02 14° 109° (ESE) 22:25:22 436.775 MHz
KITSAT 1 30 Aug 22:56:05 23:01:37 21° 102° (ESE) 23:07:09 435.175 FM
UKube-1 30 Aug 23:06:19 23:09:57 26° 264° (W) 23:13:35 145.840 MHz, 145.915 MHz
HO-68 30 Aug 23:10:21 23:16:03 26° 266° (W) 23:21:47 435.675 MHz FM
Oscar 11 30 Aug 23:11:58 23:15:58 36° 262° (W) 23:20:00 145.825 FM, Beacon 2401.500 USB
FUNcube-1 30 Aug 23:37:37 23:41:39 50° 261° (W) 23:45:47 145.950 - 145.970 MHz USB
MaSat-1 30 Aug 23:45:34 23:50:08 77° 64° (ENE) 23:54:02 437.345 MHz
Saudisat 1A 30 Aug 23:57:49 00:02:08 55° 305° (NW) 00:06:30 436.775 MHz
KITSAT 1 31 Aug 00:47:59 00:56:05 80° 300° (WNW) 01:04:14 435.175 FM
Sapphire 31 Aug 01:26:39 01:29:08 13° 41° (NE) 01:31:36 437.095 MHz 1200 baud AX-25 AFSK
PCSat 31 Aug 01:54:58 01:59:10 22° 48° (NE) 02:03:20 145.825 MHz
Oscar 19 31 Aug 02:05:04 02:08:15 16° 92° (E) 02:11:25 437.125 CW, 437.150 USB
AO-Echo 31 Aug 02:32:19 02:34:07 12° 91° (E) 02:35:56 ?
ITAMSAT 1 31 Aug 02:38:09 02:40:49 14° 91° (E) 02:43:28 435.822 SSB
Oscar 16 31 Aug 02:38:43 02:43:30 36° 98° (E) 02:48:15 437.025 USB, Beacon 2401.1428
KITSAT 1 31 Aug 02:46:58 02:52:49 21° 323° (NW) 02:58:42 435.175 FM
Uribyol 2 31 Aug 02:47:17 02:50:55 19° 93° (E) 02:54:32 436.500 FM
JAS-1B 31 Aug 02:55:49 03:00:38 21° 90° (E) 03:05:01 435.800 - 435.900 CW/SSB
AO-27 31 Aug 03:05:50 03:10:14 27° 96° (E) 03:14:37 436.795 MHz FM
Sapphire 31 Aug 03:08:02 03:13:30 76° 61° (ENE) 03:18:54 437.095 MHz 1200 baud AX-25 AFSK
Gurwin Techsat 1B 31 Aug 03:35:04 03:39:16 24° 94° (E) 03:43:28 435.225 FM
PCSat 31 Aug 03:37:38 03:42:56 56° 247° (WSW) 03:48:12 145.825 MHz
Oscar 19 31 Aug 03:42:50 03:47:56 57° 287° (WNW) 03:52:59 437.125 CW, 437.150 USB
OPAL 31 Aug 03:50:09 03:52:54 15° 59° (ENE) 03:55:40 ?
AO-Echo 31 Aug 04:08:40 04:13:18 62° 286° (WNW) 04:17:57 ?
SO-50 31 Aug 04:09:07 04:13:21 45° 116° (ESE) 04:17:41 436.795 FM
ITAMSAT 1 31 Aug 04:15:36 04:20:44 65° 287° (WNW) 04:25:52 435.822 SSB
Oscar 16 31 Aug 04:18:24 04:22:40 26° 293° (WNW) 04:26:55 437.025 USB, Beacon 2401.1428
Uribyol 2 31 Aug 04:25:38 04:30:37 49° 289° (WNW) 04:35:36 436.500 FM
TMSAT-1 31 Aug 04:25:46 04:30:56 52° 100° (E) 04:36:05 436.925 FM
AO-27 31 Aug 04:45:06 04:49:45 34° 291° (WNW) 04:54:22 436.795 MHz FM
JAS-1B 31 Aug 04:45:20 04:51:50 51° 291° (WNW) 04:57:30 435.800 - 435.900 CW/SSB
Sapphire 31 Aug 04:53:42 04:56:12 13° 257° (WSW) 04:58:42 437.095 MHz 1200 baud AX-25 AFSK
Oscar 10/S400 31 Aug 04:54:01 06:07:27 30° 244° (WSW) 09:37:40 145.825 - 145.975 CW/USB, Beacon 145.810 USB
Uosat F 31 Aug 05:00:10 05:03:45 19° 94° (E) 05:07:18 435.120 FM
Gurwin Techsat 1B 31 Aug 05:14:24 05:19:21 41° 290° (WNW) 05:24:17 435.225 FM
OPAL 31 Aug 05:26:08 05:31:09 70° 256° (WSW) 05:36:17 ?
AO-7 31 Aug 05:40:42 05:48:46 53° 102° (ESE) 05:56:46 29.400 - 29.500 MHz
SO-50 31 Aug 05:50:39 05:54:07 21° 314° (NW) 05:57:39 436.795 FM
TMSAT-1 31 Aug 06:06:44 06:10:26 20° 296° (WNW) 06:14:08 436.925 FM
UOSAT-12 31 Aug 06:06:52 06:11:21 56° 117° (ESE) 06:15:56 437.025 FM, 437.400 FM
RS-15 31 Aug 06:29:59 06:34:58 14° 97° (E) 06:39:53 29.354 - 29.394 USB, Beacon 29.352 USB
JAS-2 31 Aug 06:35:16 06:38:57 19° 94° (E) 06:42:49 435.800 - 435.900 CW/SSB, 435.910 FM
Uosat F 31 Aug 06:37:58 06:42:43 45° 289° (WNW) 06:47:27 435.120 FM
Saudisat 1A 31 Aug 06:48:02 06:49:37 12° 40° (NE) 06:51:13 436.775 MHz
KITSAT 1 31 Aug 06:48:59 06:52:23 13° 25° (NNE) 06:55:45 435.175 FM
STRAND 1 31 Aug 07:10:42 07:15:35 48° 71° (ENE) 07:20:29 ?
Hamsat 31 Aug 07:30:14 07:34:35 73° 101° (ESE) 07:38:53 145.90 MHz
AO-7 31 Aug 07:33:59 07:41:12 35° 300° (WNW) 07:48:24 29.400 - 29.500 MHz
UOSAT-12 31 Aug 07:48:29 07:51:51 19° 316° (NW) 07:55:15 437.025 FM, 437.400 FM
SO-67 31 Aug 08:07:27 08:10:14 22° 95° (E) 08:13:00 435.3500 MHz FM
JAS-2 31 Aug 08:19:14 08:24:17 50° 288° (WNW) 08:29:44 435.800 - 435.900 CW/SSB, 435.910 FM
Saudisat 1A 31 Aug 08:25:28 08:29:55 83° 58° (ENE) 08:34:18 436.775 MHz
RS-15 31 Aug 08:34:15 08:45:17 74° 116° (ESE) 08:56:08 29.354 - 29.394 USB, Beacon 29.352 USB
KITSAT 1 31 Aug 08:42:41 08:50:19 43° 51° (NE) 08:57:52 435.175 FM
STRAND 1 31 Aug 08:51:31 08:55:01 19° 267° (W) 08:58:31 ?
Hamsat 31 Aug 09:09:20 09:09:54 10° 297° (WNW) 09:10:28 145.90 MHz
SO-67 31 Aug 09:40:42 09:43:08 18° 290° (WNW) 09:45:32 435.3500 MHz FM
ISS 31 Aug 09:49:53 09:50:11 10° 127° (SE) 09:50:29 145.800 FM
HO-68 31 Aug 10:37:15 10:44:23 66° 103° (ESE) 10:51:29 435.675 MHz FM
KITSAT 1 31 Aug 10:38:11 10:45:42 44° 250° (WSW) 10:53:11 435.175 FM
RS-15 31 Aug 10:48:49 10:58:35 35° 320° (NW) 11:08:22 29.354 - 29.394 USB, Beacon 29.352 USB
UKube-1 31 Aug 10:54:49 10:59:06 55° 101° (E) 11:03:21 145.840 MHz, 145.915 MHz
Oscar 11 31 Aug 11:00:26 11:04:35 41° 98° (E) 11:08:43 145.825 FM, Beacon 2401.500 USB
ISS 31 Aug 11:23:08 11:26:27 79° 323° (NW) 11:29:47 145.800 FM
FUNcube-1 31 Aug 11:27:37 11:31:45 33° 97° (E) 11:35:55 145.950 - 145.970 MHz USB
PANSAT 31 Aug 12:20:53 12:22:13 12° 166° (SSE) 12:23:33 not established
HO-68 31 Aug 12:26:02 12:31:28 24° 301° (WNW) 12:36:55 435.675 MHz FM
UKube-1 31 Aug 12:32:45 12:34:49 13° 297° (WNW) 12:36:53 145.840 MHz, 145.915 MHz
Oscar 11 31 Aug 12:37:36 12:40:26 17° 294° (WNW) 12:43:15 145.825 FM, Beacon 2401.500 USB
SO-50 31 Aug 12:41:37 12:45:58 33° 51° (NE) 12:50:20 436.795 FM
ISS 31 Aug 13:01:28 13:03:38 16° 340° (NNW) 13:05:47 145.800 FM
FUNcube-1 31 Aug 13:04:24 13:07:56 23° 292° (WNW) 13:11:30 145.950 - 145.970 MHz USB
RS-15 31 Aug 13:09:06 13:15:41 17° 355° (N) 13:22:19 29.354 - 29.394 USB, Beacon 29.352 USB
Oscar 19 31 Aug 13:20:47 13:24:41 22° 65° (ENE) 13:28:36 437.125 CW, 437.150 USB
MaSat-1 31 Aug 13:31:36 13:36:10 43° 108° (ESE) 13:41:02 437.345 MHz
JAS-1B 31 Aug 13:36:52 13:44:28 28° 61° (ENE) 13:51:25 435.800 - 435.900 CW/SSB
AO-Echo 31 Aug 13:43:51 13:46:57 17° 64° (ENE) 13:50:01 ?
Oscar 16 31 Aug 13:54:32 13:59:27 47° 71° (ENE) 14:04:25 437.025 USB, Beacon 2401.1428
ITAMSAT 1 31 Aug 13:54:52 13:58:37 21° 64° (ENE) 14:02:21 435.822 SSB
PANSAT 31 Aug 13:59:11 14:01:43 17° 179° (S) 14:04:14 not established
Uribyol 2 31 Aug 14:04:04 14:08:18 26° 66° (ENE) 14:12:32 436.500 FM
SO-50 31 Aug 14:22:17 14:26:27 30° 247° (WSW) 14:30:39 436.795 FM
AO-27 31 Aug 14:22:53 14:27:37 38° 69° (ENE) 14:32:23 436.795 MHz FM
UOSAT-12 31 Aug 14:37:38 14:42:02 36° 51° (NE) 14:46:21 437.025 FM, 437.400 FM
AO-7 31 Aug 14:51:19 14:55:08 14° 48° (NE) 14:58:58 29.400 - 29.500 MHz
Gurwin Techsat 1B 31 Aug 14:54:59 14:59:42 34° 68° (ENE) 15:04:26 435.225 FM
Oscar 19 31 Aug 14:58:48 15:03:42 44° 261° (W) 15:08:39 437.125 CW, 437.150 USB
MaSat-1 31 Aug 15:09:19 15:13:23 25° 306° (NW) 15:17:36 437.345 MHz
AO-Echo 31 Aug 15:20:22 15:25:18 55° 259° (W) 15:30:08 ?
JAS-1B 31 Aug 15:24:23 15:34:15 76° 257° (WSW) 15:43:09 435.800 - 435.900 CW/SSB
Oscar 10/S400 31 Aug 15:24:38 15:35:47 14° 150° (SSE) 15:44:54 145.825 - 145.975 CW/USB, Beacon 145.810 USB
RS-15 31 Aug 15:24:44 15:33:36 27° 31° (NNE) 15:42:39 29.354 - 29.394 USB, Beacon 29.352 USB
ITAMSAT 1 31 Aug 15:32:47 15:37:44 47° 260° (W) 15:42:44 435.822 SSB
Oscar 16 31 Aug 15:35:22 15:39:02 20° 267° (W) 15:42:43 437.025 USB, Beacon 2401.1428
PANSAT 31 Aug 15:39:22 15:41:13 13° 192° (SSW) 15:43:04 not established
